ZHONGXING-10

Last updated on Mon Jun 22 2026 00:03:04 GMT+0000 (Coordinated Universal Time)

1 37677U 11026A 26172.54963609 -.00000190 00000+0 00000+0 0 9999 2 37677 1.0595 84.1609 0003352 1.1510 107.7856 1.00273273 55044
UTC large
Height (km)
Speed (km/s)
/
Latitude / Longitude
Inclination (degrees)
Orbital Period (minutes)
Azimuth
Elevation
Range (km)
Doppler Factor

Next 0 passes for location: London (51.5072 / 0.1276)

No passes found over London.
ZHONGXING-10